Location: Newark
(41.8083°N, 72.2500°W)
Time: 10:29:54
(UTC+00:00)

Explorer 11/Cluster Stage 4 - Pass Details

Date: 06 December 2021
Orbit: 467 x 1255 km, 28.8° (Epoch: 23 January)

Event Time Altitude Azimuth Distance (km) Brightness Sun altitude
Rises 08:03:21 0° 248° (WSW) 3,481 - -43.7°
Reaches altitude 10° 08:06:08 10° 236° (WSW) 2,671 - -43.1°
Maximum altitude 08:11:35 28° 181° (S) 1,900 - -42.1°
Exits shadow 08:14:49 20° 144° (SE) 2,323 9.1 -41.5°
Drops below altitude 10° 08:17:50 10° 127° (SE) 3,088 10.0 -41.0°
Sets 08:21:18 0° 116° (ESE) 4,126 10.9 -40.3°
